Regional Weather Roundup
Issued by NWS

Home | Current Version | Previous Version | Text Only | Print | Product List | Glossary Off
Versions: 1 2 3 4 5 6 7 8 9 10 11 12 13 14 15 16 17 18 19 20 21 22 23 24 25 26 27 28 29 30 31 32 33 34 35 36 37 38 39 40 41 42 43 44 45 46 47 48 49 50

000
ASUS43 KLOT 190106
RWRIL

ILLINOIS REGIONAL WEATHER ROUNDUP
NATIONAL WEATHER SERVICE CHICAGO/ROMEOVILLE IL
800 PM CDT THU SEP 18 2014

NOTE: "FAIR" INDICATES FEW OR NO CLOUDS BELOW 12,000 FEET WITH NO
SIGNIFICANT WEATHER AND/OR OBSTRUCTIONS TO VISIBILITY.

* THESE STATIONS ARE NOT UNDER NWS QUALITY CONTROL. THEY ALSO MAY NOT
  REPORT WEATHER SUCH AS PRECIPITATION OR FOG.

ILZ001-002-007-009-015-016-024-190200-
NORTHWEST ILLINOIS

CITY           SKY/WX    TMP DP  RH WIND       PRES   REMARKS
MOLINE         CLEAR     61  52  72 E6        30.07R
STERLING*      CLEAR     59  52  77 E5        30.10R
SAVANNA*       CLEAR     60  52  75 E5        30.09R
$$

ILZ003-004-008-010-011-017-018-190200-
NORTH CENTRAL ILLINOIS

CITY           SKY/WX    TMP DP  RH WIND       PRES   REMARKS
ROCKFORD       PTCLDY    61  54  77 E9        30.14R
FREEPORT*      CLEAR     55  51  87 E3        30.14R
ROCHELLE*      CLEAR     59  53  79 E6        30.12R
DE KALB*       CLEAR     55  52  88 E5        30.13R
PERU*          CLEAR     62  52  68 E7        30.10R
$$

ILZ005-006-012>014-019>023-190200-
NORTHEAST ILLINOIS

CITY           SKY/WX    TMP DP  RH WIND       PRES   REMARKS
CHICAGO-OHARE  PTCLDY    60  53  77 N6        30.13R
CHICAGO-MIDWAY PTCLDY    62  55  77 N9        30.13R
AURORA         CLEAR     58  52  80 NE6       30.13R
LANSING*       CLEAR     59  56  87 CALM      30.13R
JOLIET*        CLEAR     60  52  75 NE6       30.13R
WAUKEGAN       PTCLDY    54  51  90 N5        30.14R
DUPAGE AIRPORT CLEAR     58  53  84 NE9       30.13R
KANKAKEE*      CLEAR     58  55  89 NE6       30.12R
WHEELING       CLEAR     58  53  84 N5        30.15R
MORRIS*        CLEAR     59  54  85 CALM      30.11R
ROMEOVILLE*    CLEAR     59  53  79 NE8       30.12R
NORTHERLY ISL    N/A     59  55  87 N8          N/A
$$

LMZ740>746-190200-
SOUTHERN LAKE MICHIGAN

STATION/POSITION SKY/WX   TEMP    WIND        PRES    VSBY  WAVE
                          AIR SEA DIR/SP/G                  HT/PER
                          (F)     (DEG/KT/KT) (MB)    (MI)  (FT/S)
SOUTHERN BUOY              60 65  360/  8/ 10 1020.9R         2/ 6
WAUKEGAN HARBOR            57     360/  7/  9   N/A
HARRISON CRIB              60     360/ 11/ 13   N/A
BURNHAM HARBOR             59     360/  7/ 10   N/A
CALUMET HARBOR             60     360/  6/  8 1019.0R
MICHIGAN CITY              63      20/ 11/ 13   N/A
MICHIGAN CITY 6N           64 65   40/ 10/ 12   N/A           3/ 2
ST. JOSEPH                 64 66   40/ 12/ 14   N/A           3/ 2
$$

ILZ025>027-034>036-040-047-049-050-058-095>099-190200-
WEST-CENTRAL ILLINOIS

CITY           SKY/WX    TMP DP  RH WIND       PRES   REMARKS
QUINCY         CLEAR     64  53  67 SE6       30.04R
GALESBURG*     CLEAR     61  51  70 E5        30.08R
MACOMB*        CLEAR     60  53  77 E5        30.08R
JACKSONVILLE*  CLEAR     61  53  75 NE6       30.07R
PITTSFIELD*    CLEAR     62  56  80 CALM      30.06R
$$

ILZ028>032-037-038-041>044-048-051>054-059>061-190200-
CENTRAL ILLINOIS

CITY           SKY/WX    TMP DP  RH WIND       PRES   REMARKS
PONTIAC        CLEAR     57  52  82 NE7       30.09R
DECATUR        CLEAR     58  48  69 NE5       30.07R
PEORIA         CLEAR     62  51  67 NE5       30.08R
LACON*         CLEAR     58  51  78 E6        30.08R
LINCOLN*       CLEAR     59  51  72 CALM      30.05R
SPRINGFIELD    CLEAR     61  52  72 NE5       30.06R
TAYLORVILLE    CLEAR     63  48  59 NE5       30.05R
$$

ILZ033-039-045-046-055>057-062-063-190200-
EAST-CENTRAL ILLINOIS

CITY           SKY/WX    TMP DP  RH WIND       PRES   REMARKS
CHAMPAIGN      CLEAR     59  48  67 NE6       30.07S
DANVILLE*      CLEAR     60  51  71 E5        30.06R
RANTOUL*       CLEAR     64  44  48 NE3       30.09R
MATTOON        CLEAR     58  47  66 E6        30.06R
PARIS*         CLEAR     55  53  93 CALM      30.08R
$$

ILZ079-100>102-190200-
SOUTHWEST ILLINOIS

CITY           SKY/WX    TMP DP  RH WIND       PRES   REMARKS
ALTON          CLEAR     61  55  82 CALM      30.05R
BELLEVILLE     CLEAR     62  58  89 CALM      30.04R
CAHOKIA*       CLEAR     62  57  83 CALM      30.04R
SPARTA*        CLEAR     62  55  76 CALM      30.04S
$$

ILZ064>066-069>071-074>076-080>082-084>086-088>090-092>094-190200-
SOUTH-CENTRAL ILLINOIS

CITY           SKY/WX    TMP DP  RH WIND       PRES   REMARKS
CARBONDALE     CLEAR     58  55  90 CALM      30.03R
CAIRO*         PTCLDY    65  59  81 N3        30.01R
EFFINGHAM*     CLEAR     58  55  87 CALM      30.06R
MARION         CLEAR     61  57  88 CALM      30.04R
MT. VERNON     CLEAR     59  54  82 CALM      30.05R
CENTRALIA*     CLEAR     58  55  87 CALM      30.05R
SALEM*         CLEAR     61  58  92 CALM      30.06R
METROPOLIS*    CLEAR     63  59  88 CALM      30.01R
$$

ILZ067-068-072-073-078-083-087-091-190200-
SOUTHEAST ILLINOIS

CITY           SKY/WX    TMP DP  RH WIND       PRES   REMARKS
LAWRENCEVILLE  CLEAR     60  54  80 NE6       30.06R
FLORA*         CLEAR     59  55  86 CALM      30.06R
FAIRFIELD*     CLEAR    N/A N/A N/A CALM      30.05R
HARRISBURG*    CLEAR     64  54  69 NE5       30.05R
ROBINSON*      CLEAR     59  55  87 E5        30.07R
CARMI*         CLEAR     62  57  86 N3        30.04R
$$

ABBREVIATIONS USED IN REMARKS
   TC - TEMPERATURE IN CELSIUS
  WCI - WIND CHILL INDEX
   HX - HEAT INDEX
  VSB - VISIBILITY
$$



USA.gov is the U.S. government's official web portal to all federal, state and local government web resources and services.